STARLINK-11247, 60720

Orbit data source: Space-Track

STARLINK-11247, 60720 is a payload satellite owned by SpaceX/Seattle (US) in LEO that was launched on Wed, 28 Aug 2024 UTC via an FALCON 9 launch vehicle from the Air Force Eastern Test Range (AFETR). Payload-class satellites include a variety of spacecraft equipped with specific instruments for various scientific and technological missions. These include communications satellites like Starlink; space stations such as the ISS; scientific satellites like the Hubble; Earth observation satellites from companies like Planet Labs, Umbra, and HawkEye 360; GPS; miniature CubeSats for education and research; and military/defense satellites.

Loading next visibility...
Identifier
60720, 2024-152A
Orbit
LEO
Last TLE update
14 hours ago
Origin
Manufacturer
SpaceX/Seattle
Mission
Operational Commercial Communications
Bus & Motor
STARLINK V2M, Unknown motor
Mass
730 kg wet, ~700 kg dry
Launch date (UTC)
2024-08-28 (10 months ago)
Launch vehicle
FALCON 9
Launch site
Air Force Eastern Test Range (AFETR)
Object type
Payload
Rocket body
Debris
Shape & HBR
Box + 2 Pan, 29 m
Radar Cross Section
36.964 m², Large (>1 m²)

Expand to show TLE details & history

TLE from 14 hours ago
0 STARLINK-11247
1 60720U 24152A   25182.65985799  .00000127  00000-0  59001-5 0  9995
2 60720  53.1594 274.0657 0000724  75.8756 284.2342 15.69710345 49409
Epoch: 2025-07-01T15:50Z
TLE epoch observation values (Epoch: 2025-07-01T15:50:11.73Z)
Latitude
-0.00004°
Longitude
116.56466°
Altitude
360.521 km
Speed
7.694 km/s
True Right ascension
18h 16m 15s
True Declination
0° 00' 00"
Sunlit
Object was in full shadow at epoch
Visualization orbit readout
Latitude
-0.08987°
Longitude
113.6722°
Altitude
360.547 km
Speed
7.694 km/s
Apparent Right ascension
19h 54m 46s
Apparent Declination
-61° 44' 08"
Sunlit
Object is in full shadow
Visualization observer readout
Local Sidereal Time
17:16:54
Azimuth
161.701° S
Elevation
-16.544°
Doppler factor
1
Orbital elements
Apogee altitude
360.474 km
Perigee altitude
359.499 km
Semi-major axis
6,738.124 km
Eccentricity
0.00007
Inclination
53.1594°
RAAN
274.0657°
Arg. of periapsis
75.8756°
True anomaly
Unknown
Mean anomaly
284.2342°
Eccentric anomaly
Unknown
Mean motion
3.92405 °/min
Orbital period
91.74 mins
BSTAR
0.0000059001
Loading maneuver chart data...
Loading SW <> Apogee altitude chart data...
Loading historical data...
Loading historical data...
Loading historical data...
Loading historical data...
Loading historical data...
Loading historical data...
Loading historical data...

STARLINK-11247 Visibility forecast

Observer location: undefined°, undefined°

Span
Click to sort rows by Start time (UTC) header in descending order
Start Az.
Max El. time (UTC)
Max El. Az.
Max El.
End time (UTC)
End Az.
5 mins2025-07-02 08:49:19.159Z226.83° WSW2025-07-02 08:52:19.159Z75.665° E44.153°2025-07-02 08:54:19.159Z51.742° ENE
4 mins2025-07-02 15:15:19.159Z330.083° NNW2025-07-02 15:17:19.159Z71.15° E34.73°2025-07-02 15:19:19.159Z111.906° ESE
|